| time (UTC) | temp C | wind direction | speed KPH | gust KPH | rain 1hr cm | rain 24hr cm | rain mn cm | humidity % | barometer mb |
| 20260504224804 | 21 | 138 | 9.7 | 16.1 | 0.00 | 0.03 | 0.03 | 80 | 1016.4 |
| 20260504224304 | 21 | 109 | 8.0 | 12.9 | 0.00 | 0.03 | 0.03 | 81 | 1016.4 |
| 20260504223305 | 21 | 132 | 8.0 | 16.1 | 0.00 | 0.03 | 0.03 | 82 | 1016.4 |
| 20260504222804 | 21 | 127 | 6.4 | 16.1 | 0.00 | 0.03 | 0.03 | 82 | 1016.4 |
| 20260504222305 | 21 | 116 | 9.7 | 16.1 | 0.00 | 0.03 | 0.03 | 83 | 1016.4 |
| 20260504221804 | 20 | 117 | 4.8 | 14.5 | 0.00 | 0.03 | 0.03 | 83 | 1016.4 |
| 20260504221304 | 20 | 112 | 4.8 | 14.5 | 0.00 | 0.03 | 0.03 | 84 | 1016.3 |
| 20260504220804 | 20 | 103 | 4.8 | 16.1 | 0.00 | 0.03 | 0.03 | 84 | 1016.2 |
| 20260504220304 | 20 | 155 | 4.8 | 11.3 | 0.00 | 0.03 | 0.03 | 84 | 1016.2 |
| 20260504215804 | 20 | 123 | 4.8 | 11.3 | 0.00 | 0.03 | 0.03 | 84 | 1016.2 |
| 20260504215305 | 20 | 131 | 6.4 | 14.5 | 0.00 | 0.03 | 0.03 | 85 | 1016.2 |
| 20260504214805 | 20 | 136 | 1.6 | 4.8 | 0.00 | 0.03 | 0.03 | 85 | 1016.2 |
| 20260504214304 | 20 | 146 | 1.6 | 4.8 | 0.00 | 0.03 | 0.03 | 85 | 1016.2 |
| 20260504213804 | 19 | 130 | 0.0 | 8.0 | 0.00 | 0.03 | 0.03 | 85 | 1016.1 |
| 20260504213305 | 19 | 97 | 1.6 | 4.8 | 0.00 | 0.03 | 0.03 | 85 | 1016.2 |
| 20260504212805 | 19 | 96 | 1.6 | 4.8 | 0.00 | 0.03 | 0.03 | 85 | 1016.0 |
| 20260504212305 | 19 | 95 | 3.2 | 4.8 | 0.00 | 0.03 | 0.03 | 85 | 1016.0 |
| 20260504211804 | 19 | 91 | 1.6 | 4.8 | 0.00 | 0.03 | 0.03 | 85 | 1015.9 |
| 20260504211305 | 19 | 90 | 1.6 | 3.2 | 0.00 | 0.03 | 0.03 | 85 | 1015.9 |
| 20260504210804 | 19 | 90 | 1.6 | 4.8 | 0.00 | 0.03 | 0.03 | 85 | 1015.8 |
| 20260504205305 | 19 | 90 | 0.0 | 3.2 | 0.00 | 0.03 | 0.03 | 85 | 1015.7 |
| 20260504204804 | 19 | 90 | 1.6 | 4.8 | 0.00 | 0.03 | 0.03 | 85 | 1015.6 |
| 20260504203804 | 18 | 90 | 1.6 | 3.2 | 0.00 | 0.03 | 0.03 | 85 | 1015.6 |
| 20260504203305 | 18 | 90 | 3.2 | 9.7 | 0.00 | 0.03 | 0.03 | 85 | 1015.5 |
| 20260504201804 | 18 | 92 | 3.2 | 4.8 | 0.00 | 0.03 | 0.03 | 85 | 1015.2 |
| 20260504201305 | 18 | 92 | 1.6 | 4.8 | 0.00 | 0.03 | 0.03 | 85 | 1015.2 |
| 20260504195804 | 18 | 92 | 3.2 | 9.7 | 0.00 | 0.03 | 0.03 | 85 | 1015.1 |
| 20260504195305 | 18 | 93 | 6.4 | 11.3 | 0.00 | 0.03 | 0.03 | 85 | 1015.1 |
| 20260504194805 | 18 | 99 | 4.8 | 11.3 | 0.00 | 0.03 | 0.03 | 85 | 1015.2 |
| 20260504194304 | 18 | 132 | 4.8 | 4.8 | 0.00 | 0.03 | 0.03 | 86 | 1015.2 |
| 20260504193805 | 18 | 145 | 4.8 | 8.0 | 0.00 | 0.03 | 0.03 | 86 | 1015.1 |
| 20260504192805 | 18 | 101 | 3.2 | 4.8 | 0.00 | 0.03 | 0.03 | 86 | 1015.0 |
| 20260504192304 | 18 | 99 | 4.8 | 9.7 | 0.00 | 0.03 | 0.03 | 86 | 1014.9 |
| 20260504191805 | 18 | 97 | 1.6 | 4.8 | 0.00 | 0.03 | 0.03 | 86 | 1014.8 |
| 20260504191305 | 18 | 96 | 4.8 | 11.3 | 0.00 | 0.03 | 0.03 | 86 | 1014.8 |
| 20260504190804 | 18 | 98 | 3.2 | 9.7 | 0.00 | 0.03 | 0.03 | 86 | 1014.8 |
| 20260504190304 | 18 | 96 | 4.8 | 9.7 | 0.00 | 0.03 | 0.03 | 86 | 1014.7 |
| 20260504185804 | 18 | 96 | 1.6 | 4.8 | 0.00 | 0.03 | 0.03 | 86 | 1014.7 |
| 20260504185305 | 18 | 96 | 3.2 | 11.3 | 0.00 | 0.03 | 0.03 | 86 | 1014.7 |
| 20260504184304 | 18 | 142 | 1.6 | 4.8 | 0.00 | 0.03 | 0.03 | 86 | 1014.8 |
| 20260504183804 | 18 | 142 | 0.0 | 4.8 | 0.00 | 0.03 | 0.03 | 85 | 1014.7 |
| 20260504183305 | 18 | 142 | 1.6 | 4.8 | 0.00 | 0.03 | 0.03 | 85 | 1014.6 |
| 20260504182806 | 18 | 143 | 0.0 | 1.6 | 0.00 | 0.03 | 0.03 | 85 | 1014.5 |
| 20260504182306 | 18 | 143 | 1.6 | 4.8 | 0.00 | 0.03 | 0.03 | 85 | 1014.5 |
| 20260504181804 | 18 | 143 | 1.6 | 3.2 | 0.00 | 0.03 | 0.03 | 85 | 1014.6 |
| 20260504181304 | 18 | 143 | 1.6 | 4.8 | 0.00 | 0.03 | 0.03 | 85 | 1014.5 |
| 20260504180804 | 18 | 148 | 3.2 | 4.8 | 0.00 | 0.03 | 0.03 | 85 | 1014.6 |
| 20260504175805 | 18 | 146 | 1.6 | 4.8 | 0.00 | 0.03 | 0.03 | 85 | 1014.7 |
| 20260504175305 | 18 | 146 | 3.2 | 4.8 | 0.00 | 0.03 | 0.03 | 85 | 1014.7 |
| 20260504174305 | 18 | 146 | 1.6 | 4.8 | 0.00 | 0.03 | 0.03 | 85 | 1014.8 |
| 20260504173304 | 18 | 145 | 4.8 | 11.3 | 0.00 | 0.03 | 0.03 | 86 | 1014.9 |
| 20260504172804 | 18 | 138 | 3.2 | 11.3 | 0.00 | 0.03 | 0.03 | 86 | 1015.0 |
| 20260504171804 | 18 | 153 | 3.2 | 4.8 | 0.00 | 0.03 | 0.03 | 85 | 1015.1 |
| 20260504171304 | 18 | 155 | 1.6 | 4.8 | 0.00 | 0.03 | 0.03 | 85 | 1015.1 |
| 20260504170804 | 18 | 155 | 3.2 | 9.7 | 0.00 | 0.03 | 0.03 | 85 | 1015.2 |
| 20260504170305 | 18 | 156 | 3.2 | 11.3 | 0.00 | 0.03 | 0.03 | 85 | 1015.1 |
| 20260504150805 | 18 | 160 | 1.6 | 4.8 | 0.00 | 0.03 | 0.03 | 85 | 1016.2 |
| 20260504141305 | 20 | 107 | 0.0 | 4.8 | 0.03 | 0.03 | 0.03 | 85 | 1017.0 |
| 20260504140804 | 20 | 107 | 3.2 | 4.8 | 0.03 | 0.03 | 0.03 | 85 | 1017.1 |
| 20260504140304 | 20 | 108 | 4.8 | 9.7 | 0.03 | 0.03 | 0.03 | 84 | 1017.1 |
| 20260504130804 | 20 | 150 | 4.8 | 12.9 | 0.00 | 0.00 | 0.00 | 83 | 1017.1 |
| 20260504130304 | 20 | 153 | 4.8 | 11.3 | 0.00 | 0.00 | 0.00 | 82 | 1017.1 |
| 20260504120304 | 20 | 119 | 1.6 | 4.8 | 0.00 | 0.00 | 0.00 | 82 | 1017.0 |
| 20260504110304 | 20 | 121 | 4.8 | 11.3 | 0.00 | 0.00 | 0.00 | 81 | 1017.1 |
| 20260504100304 | 21 | 127 | 8.0 | 16.1 | 0.00 | 0.00 | 0.00 | 80 | 1016.5 |
| 20260504081305 | 22 | 80 | 1.6 | 3.2 | 0.00 | 0.00 | 0.00 | 74 | 1014.7 |
| 20260504080804 | 23 | 80 | 1.6 | 3.2 | 0.00 | 0.00 | 0.00 | 73 | 1014.7 |
| 20260504080304 | 23 | 80 | 1.6 | 4.8 | 0.00 | 0.00 | 0.00 | 72 | 1014.6 |
| 20260504070305 | 24 | 57 | 3.2 | 9.7 | 0.00 | 0.00 | 0.00 | 70 | 1014.1 |
| 20260504050305 | 26 | 54 | 4.8 | 19.3 | 0.00 | 0.00 | 0.00 | 69 | 1013.4 |
| 20260504044804 | 25 | 31 | 4.8 | 11.3 | 0.00 | 0.00 | 0.00 | 67 | 1013.4 |
| 20260504044304 | 25 | 17 | 8.0 | 14.5 | 0.00 | 0.00 | 0.00 | 66 | 1013.5 |
| 20260504043805 | 25 | 79 | 8.0 | 14.5 | 0.00 | 0.00 | 0.00 | 65 | 1013.5 |
| 20260504043304 | 25 | 54 | 4.8 | 11.3 | 0.00 | 0.00 | 0.00 | 67 | 1013.5 |
| 20260504042804 | 25 | 93 | 11.3 | 19.3 | 0.00 | 0.00 | 0.00 | 67 | 1013.6 |
| 20260504042304 | 25 | 117 | 6.4 | 14.5 | 0.00 | 0.00 | 0.00 | 66 | 1013.7 |
| 20260504041805 | 25 | 3 | 0.0 | 0.0 | 0.00 | 0.00 | 0.00 | 71 | 1013.7 |
| 20260504040804 | 25 | 3 | 0.0 | 0.0 | 0.00 | 0.00 | 0.00 | 71 | 1013.7 |
| 20260504035804 | 25 | 3 | 0.0 | 0.0 | 0.00 | 0.00 | 0.00 | 71 | 1013.9 |
| 20260504034804 | 25 | 3 | 0.0 | 0.0 | 0.00 | 0.00 | 0.00 | 71 | 1014.0 |
| 20260504034304 | 25 | 3 | 0.0 | 0.0 | 0.00 | 0.00 | 0.00 | 71 | 1014.0 |
| 20260504033804 | 25 | 3 | 0.0 | 0.0 | 0.00 | 0.00 | 0.00 | 71 | 1014.0 |
| 20260504033304 | 25 | 3 | 0.0 | 4.8 | 0.00 | 0.00 | 0.00 | 71 | 1014.0 |
| 20260504032805 | 25 | 115 | 4.8 | 4.8 | 0.00 | 0.00 | 0.00 | 71 | 1014.1 |
| 20260504032304 | 25 | 115 | 4.8 | 12.9 | 0.00 | 0.00 | 0.00 | 71 | 1014.2 |
| 20260504030805 | 25 | 137 | 9.7 | 16.1 | 0.00 | 0.00 | 0.00 | 70 | 1014.4 |
| 20260504025805 | 26 | 103 | 11.3 | 19.3 | 0.00 | 0.00 | 0.00 | 68 | 1014.4 |
| 20260504025304 | 26 | 146 | 12.9 | 16.1 | 0.00 | 0.00 | 0.00 | 67 | 1014.4 |
| 20260504024804 | 26 | 119 | 8.0 | 22.5 | 0.00 | 0.00 | 0.00 | 66 | 1014.3 |
| 20260504024304 | 26 | 133 | 11.3 | 24.1 | 0.00 | 0.00 | 0.00 | 64 | 1014.4 |
| 20260504023804 | 26 | 92 | 19.3 | 19.3 | 0.00 | 0.00 | 0.00 | 64 | 1014.4 |
| 20260504023304 | 26 | 87 | 12.9 | 19.3 | 0.00 | 0.00 | 0.00 | 64 | 1014.5 |
| 20260504022804 | 26 | 89 | 14.5 | 22.5 | 0.00 | 0.00 | 0.00 | 65 | 1014.5 |
| 20260504022305 | 26 | 85 | 17.7 | 24.1 | 0.00 | 0.00 | 0.00 | 63 | 1014.5 |
| 20260504021804 | 26 | 100 | 11.3 | 20.9 | 0.00 | 0.00 | 0.00 | 65 | 1014.5 |
| 20260504021305 | 26 | 110 | 14.5 | 19.3 | 0.00 | 0.00 | 0.00 | 64 | 1014.5 |
| 20260504020805 | 27 | 96 | 11.3 | 12.9 | 0.00 | 0.00 | 0.00 | 65 | 1014.5 |
| 20260504015804 | 26 | 90 | 4.8 | 19.3 | 0.00 | 0.00 | 0.00 | 65 | 1014.7 |
| 20260504015304 | 26 | 105 | 9.7 | 22.5 | 0.00 | 0.00 | 0.00 | 66 | 1014.8 |
| 20260504014304 | 26 | 104 | 9.7 | 14.5 | 0.00 | 0.00 | 0.00 | 67 | 1015.0 |
| 20260504013804 | 26 | 103 | 6.4 | 11.3 | 0.00 | 0.00 | 0.00 | 67 | 1015.1 |
| 20260504013304 | 26 | 96 | 6.4 | 11.3 | 0.00 | 0.00 | 0.00 | 67 | 1015.2 |
| 20260504012804 | 26 | 57 | 9.7 | 19.3 | 0.00 | 0.00 | 0.00 | 67 | 1015.3 |
| 20260504012304 | 26 | 48 | 9.7 | 16.1 | 0.00 | 0.00 | 0.00 | 67 | 1015.5 |
| 20260504011804 | 26 | 71 | 9.7 | 16.1 | 0.00 | 0.00 | 0.00 | 67 | 1015.5 |
| 20260504011304 | 26 | 75 | 9.7 | 20.9 | 0.00 | 0.00 | 0.00 | 67 | 1015.5 |
| 20260504010304 | 26 | 65 | 9.7 | 16.1 | 0.00 | 0.00 | 0.00 | 69 | 1015.6 |
| 20260504005804 | 25 | 83 | 4.8 | 16.1 | 0.00 | 0.00 | 0.00 | 69 | 1015.8 |
| 20260504005305 | 25 | 49 | 12.9 | 20.9 | 0.00 | 0.00 | 0.00 | 71 | 1015.8 |
| 20260504004804 | 25 | 50 | 6.4 | 14.5 | 0.00 | 0.00 | 0.00 | 71 | 1015.8 |
| 20260504004305 | 25 | 54 | 11.3 | 20.9 | 0.00 | 0.00 | 0.00 | 71 | 1015.8 |
| 20260504003304 | 25 | 83 | 9.7 | 14.5 | 0.00 | 0.00 | 0.00 | 69 | 1016.0 |
| 20260504002804 | 25 | 75 | 8.0 | 16.1 | 0.00 | 0.00 | 0.00 | 69 | 1016.0 |
| 20260504002305 | 25 | 61 | 4.8 | 12.9 | 0.00 | 0.00 | 0.00 | 70 | 1016.0 |
| 20260504001804 | 25 | 61 | 6.4 | 12.9 | 0.00 | 0.00 | 0.00 | 71 | 1016.0 |
| 20260504001306 | 24 | 36 | 8.0 | 14.5 | 0.00 | 0.00 | 0.00 | 72 | 1016.1 |
| 20260504000804 | 24 | 71 | 8.0 | 14.5 | 0.00 | 0.00 | 0.00 | 72 | 1016.1 |
| 20260504000304 | 24 | 81 | 9.7 | 14.5 | 0.00 | 0.00 | 0.00 | 70 | 1016.2 |
| 20260503235804 | 24 | 55 | 6.4 | 12.9 | 0.00 | 0.00 | 0.00 | 72 | 1016.2 |
| 20260503235304 | 24 | 116 | 4.8 | 14.5 | 0.00 | 0.00 | 0.00 | 73 | 1016.1 |
| 20260503234804 | 24 | 71 | 3.2 | 12.9 | 0.00 | 0.00 | 0.00 | 73 | 1016.2 |
| 20260503234305 | 23 | 60 | 4.8 | 9.7 | 0.00 | 0.00 | 0.00 | 75 | 1016.1 |
| 20260503233804 | 23 | 78 | 4.8 | 11.3 | 0.00 | 0.00 | 0.00 | 75 | 1016.1 |
| 20260503233305 | 23 | 97 | 6.4 | 12.9 | 0.00 | 0.00 | 0.00 | 76 | 1016.2 |
| 20260503232804 | 23 | 90 | 4.8 | 4.8 | 0.00 | 0.00 | 0.00 | 77 | 1016.2 |
| 20260503232305 | 22 | 84 | 3.2 | 11.3 | 0.00 | 0.00 | 0.00 | 76 | 1016.2 |
| 20260503231804 | 22 | 92 | 6.4 | 11.3 | 0.00 | 0.00 | 0.00 | 77 | 1016.2 |
| 20260503231304 | 22 | 3 | 0.0 | 0.0 | 0.00 | 0.00 | 0.00 | 79 | 1016.1 |
| 20260503230817 | 22 | 3 | 0.0 | 0.0 | 0.00 | 0.00 | 0.00 | 79 | 1016.1 |
| 20260503230304 | 22 | 3 | 0.0 | 0.0 | 0.00 | 0.00 | 0.00 | 79 | 1016.0 |
| 20260503225804 | 22 | 53 | 4.8 | 4.8 | 0.00 | 0.00 | 0.00 | 79 | 1016.0 |
| 20260503225305 | 22 | 76 | 4.8 | 4.8 | 0.00 | 0.00 | 0.00 | 79 | 1016.0 |